Weather Roundup
Issued by NWS

Home | Current Version | Previous Version | Text Only | Print | Product List | Glossary On
Versions: 1 2 3 4 5 6 7 8 9 10 11 12 13 14 15 16 17 18 19 20 21 22 23 24 25 26 27 28 29 30 31 32 33 34 35 36 37 38 39 40 41 42 43 44 45 46 47 48 49 50
000
NZUS93 KARX 210959
HRRWXR

CURRENT HOURLY OBSERVATIONS ACROSS
MUCH OF THE UPPER MISSISSIPPI VALLEY
NATIONAL WEATHER SERVICE LA CROSSE WI
400 AM CST SUN DEC 21 2014


...SOUTHEAST MINNESOTA...


CITY           SKY/WX    TMP DP  RH WIND       PRES   REMARKS
ROCHESTER      CLOUDY    31  30  96 S13       30.00F FOG     WCI  21
ROCHESTER/MAYO CLOUDY    32  31  99 SE9       30.00F WCI  24
WINONA         CLOUDY    34  32  93 SE6       30.07F FOG     WCI  29
AUSTIN         CLOUDY    32  32 100 S7        29.99F FOG     WCI  26
ALBERT LEA     FOG       34  34 100 S12       29.97F VSB 1/2 WCI  25
DODGE CENTER   CLOUDY    32  32 100 S10       29.98F FOG     WCI  24
PRESTON        FOG       31  30  99 SE7       30.02F VSB 1   WCI  24
OWATONNA       CLOUDY    34  30  86 SE9       29.97F FOG     WCI  26
FARIBAULT      CLOUDY    34  30  86 SE10      29.98F FOG     WCI  26
$$

...ELSEWHERE IN MINNESOTA...


CITY           SKY/WX    TMP DP  RH WIND       PRES   REMARKS
MINNEAPOLIS    CLOUDY    32  29  88 SE9       29.98F FOG     WCI  24
INTNL FALLS    LGT SNOW  28  26  92 SE7       29.86F VSB 1   WCI  21
DULUTH         CLOUDY    29  25  85 S17       29.95F WCI  17
RED WING       CLOUDY    34  30  86 SE6       30.02F FOG     WCI  29
REDWOOD FALLS  CLOUDY    32  30  92 S15       29.90F WCI  22
MANKATO        CLOUDY    34  28  80 S10       29.95F WCI  26
WORTHINGTON    CLOUDY    30  28  93 S8        29.89F VSB 1/4 WCI  23
FAIRMONT       CLOUDY    32  28  86 S12       29.93F VSB 1/2 WCI  23
$$

...SOUTHWEST WISCONSIN...


CITY           SKY/WX    TMP DP  RH WIND       PRES   REMARKS
LA CROSSE      CLOUDY    33  29  85 SE7       30.09F FOG     WCI  27
PRAIRIE DU CHI FOG       32  31  96 E6        30.10F VSB 1   WCI  26
BOSCOBEL       CLOUDY    33  30  88 CALM      30.12F FOG
LONE ROCK      NOT AVBL
PLATTEVILLE    CLOUDY    32  31  98 CALM      30.13F VSB 1/2
FORT MC COY    CLOUDY    31  28  89 SE7       30.11F FOG     WCI  24
VIROQUA        CLOUDY    30  30 100 SE9       30.07F VSB 1/2 WCI  21
WIS DELLS      NOT AVBL
$$

...ELSEWHERE IN WISCONSIN...


CITY           SKY/WX    TMP DP  RH WIND       PRES   REMARKS
MILWAUKEE      CLOUDY    32  26  78 S6        30.20F WCI  26
MADISON        CLOUDY    31  28  89 SE8       30.14F FOG     WCI  23
GREEN BAY      CLOUDY    30  27  88 S7        30.17F FOG     WCI  23
EAU CLAIRE     CLOUDY    31  27  85 S6        30.05F WCI  25
BLACK RVR FLS  CLOUDY    31  28  88 SE5       30.09F FOG     WCI  26
MEDFORD        CLOUDY    28  27  96 S8        30.07F FOG     WCI  19
WAUSAU         CLOUDY    28  26  92 S7        30.09F FOG     WCI  21
WIS RAPIDS     CLOUDY    29  25  85 S5        30.13F FOG     WCI  24
MARSHFIELD     CLOUDY    29  26  89 S8        30.09F FOG     WCI  21
RICE LAKE      CLOUDY    31  28  91 SE10      30.04F FOG     WCI  22
$$

...NORTHEAST IOWA...


CITY           SKY/WX    TMP DP  RH WIND       PRES   REMARKS
DECORAH        FOG       32  32 100 SE9       30.05F VSB 1/4 WCI  24
MASON CITY     FOG       32  32 100 SE15      29.99F VSB 1/2 WCI  22
CHARLES CITY   FOG       32  32 100 SE12      30.04F VSB 1/4 WCI  23
OELWEIN        FOG       32  32 100 SE13      30.07F VSB 1/4 WCI  22
$$

...ELSEWHERE IN IOWA...


CITY           SKY/WX    TMP DP  RH WIND       PRES   REMARKS
DES MOINES     CLOUDY    39  35  86 S12       30.03F WCI  32
IOWA CITY      CLOUDY    35  34  96 SE8       30.13F FOG     WCI  29
FORT DODGE     CLOUDY    36  34  93 S9G16     29.97F WCI  29
$$

...NORTHERN ILLINOIS...


CITY           SKY/WX    TMP DP  RH WIND       PRES   REMARKS
CHICAGO-OHARE  CLOUDY    32  27  81 S7        30.21F WCI  26
CHICAGO-MIDWAY CLOUDY    34  27  75 S9        30.23F WCI  27
MOLINE         CLOUDY    35  32  88 S3        30.15F
ROCKFORD       CLOUDY    32  29  88 SE6       30.20F WCI  26
PEORIA         CLOUDY    36  29  75 S5        30.20F WCI  32
$$

NOTE: "FAIR" INDICATES FEW OR NO CLOUDS BELOW 12,000 FEET WITH NO
SIGNIFICANT WEATHER AND/OR OBSTRUCTIONS TO VISIBILITY. WIND
SPEEDS ARE IN MILES-PER-HOUR.



USA.gov is the U.S. government's official web portal to all federal, state and local government web resources and services.